Theta_e
327 326 327 326 327 326 327 326 326 326 324 325 324 320 316 313 310 306 303 304 302 302 305 302 305 308 309 309 310 311 310 312 311 306 304 303 303 308 308 307 307 307 306 306 306 305 306 308 309 312 313 313 312 311 310 310 310 311 311 311 311 310 309 309 308 312 311 311 310 309 309 309 308 308
328 327 327 325 325 327 327 325 324 325 324 324 325 323 319 314 310 306 304 303 303 300 304 305 304 306 307 309 310 310 309 313 310 306 304 303 303 307 307 306 304 305 306 305 305 305 307 309 312 312 312 312 311 309 309 310 310 311 311 311 311 311 311 310 312 311 311 310 309 309 308 307 307 306
328 326 326 324 324 326 325 326 325 324 326 324 325 322 322 320 313 308 305 302 304 303 302 305 307 306 306 309 308 309 309 312 310 306 304 304 306 308 306 306 305 305 306 303 303 306 308 308 310 310 311 310 310 309 310 310 311 313 312 310 310 311 312 312 312 311 310 310 309 308 308 307 307 307
328 327 326 325 325 324 324 324 324 324 325 324 322 322 322 320 318 309 306 303 302 303 303 305 306 306 306 306 305 305 307 311 312 305 305 305 308 305 302 305 305 306 305 304 304 309 311 309 310 311 310 309 309 309 309 310 312 312 309 308 310 311 309 308 309 309 307 307 308 307 307 307 307 307
328 328 328 326 326 326 323 322 323 324 324 323 322 322 321 320 319 310 305 303 302 304 305 306 305 306 305 304 304 303 304 306 309 308 305 305 303 301 301 302 304 304 304 303 303 304 305 304 309 308 307 308 308 308 306 308 309 309 305 306 306 307 308 307 306 307 306 306 306 306 306 306 306 307
327 326 326 325 326 326 324 323 324 325 325 324 323 322 322 319 320 317 307 302 301 300 303 305 306 305 306 303 305 303 302 304 307 307 307 306 303 301 301 300 301 303 303 302 302 302 304 303 304 304 303 305 304 306 305 304 304 306 303 303 304 308 308 307 303 304 306 305 306 306 306 305 305 306
323 325 324 323 324 327 324 322 323 324 324 324 323 321 320 318 319 316 307 305 302 301 302 305 305 304 305 304 304 304 304 305 307 306 307 306 305 304 302 302 301 302 302 302 302 301 302 303 301 302 304 303 301 302 303 302 302 303 302 300 303 304 305 304 301 299 300 305 306 305 304 304 304 305
321 322 323 322 323 323 321 321 321 322 322 322 321 320 318 318 319 313 307 307 304 302 303 304 306 305 304 304 306 306 306 306 306 307 307 307 305 304 305 304 303 303 302 302 302 302 302 303 301 300 301 301 301 301 301 302 301 301 302 300 301 302 300 298 294 294 299 306 305 304 303 303 304 304
322 323 322 322 322 321 320 320 320 320 320 323 319 319 318 318 317 317 308 307 306 304 303 304 305 306 305 307 306 307 305 305 307 307 307 306 305 304 304 306 307 306 303 302 302 301 301 301 301 299 300 300 301 300 300 301 301 301 302 301 300 299 298 295 293 295 299 300 303 303 302 302 302 303
323 322 320 321 322 321 319 318 319 319 320 322 319 318 317 317 315 311 307 308 306 305 304 304 305 303 304 305 305 307 307 305 305 305 305 307 306 304 304 305 307 308 305 303 302 302 301 300 300 300 300 300 299 300 300 300 301 301 301 300 299 299 297 296 295 296 298 299 299 301 301 300 301 302
322 322 322 321 321 320 320 320 320 319 319 320 318 317 317 318 314 310 308 308 306 306 305 304 305 304 305 305 304 306 307 306 306 304 303 303 306 306 306 306 306 304 305 303 301 301 300 301 300 300 300 300 301 301 300 300 301 301 300 299 298 298 297 297 298 298 298 299 298 297 297 300 300 301
321 322 321 320 319 320 321 321 320 319 319 319 318 317 317 317 312 309 309 308 307 306 306 304 305 303 304 305 305 308 306 304 304 306 305 303 303 305 307 307 305 303 302 301 301 301 300 299 301 300 300 301 300 301 301 301 301 301 300 299 298 298 298 298 298 298 298 299 297 297 296 295 296 299
323 321 321 321 320 321 318 312 312 314 318 319 315 314 317 313 310 308 308 308 307 306 306 305 306 304 303 305 305 304 303 304 304 306 306 305 305 306 306 307 306 304 301 301 301 300 300 299 299 299 298 299 301 301 301 301 302 301 299 298 298 298 298 298 298 299 299 299 298 297 297 296 295 295
321 321 320 322 322 315 311 307 302 302 305 310 313 313 315 316 315 313 311 309 308 309 306 305 305 304 304 304 306 306 305 307 307 306 306 305 306 304 305 307 305 305 302 301 300 301 302 300 299 299 299 300 302 300 300 299 300 300 298 298 298 298 298 298 298 299 299 298 298 298 297 296 296 294
316 315 316 315 316 314 311 304 299 298 298 299 300 302 307 313 313 312 311 311 311 308 308 308 307 304 305 307 308 307 307 307 308 307 307 307 306 305 304 303 305 306 304 302 301 302 303 302 300 300 300 300 300 300 300 300 300 300 298 298 298 298 298 298 298 298 298 298 298 298 297 297 296 295
312 312 311 311 313 312 311 307 304 301 297 296 296 296 296 297 300 305 309 308 307 307 306 306 308 307 307 307 308 309 308 307 309 309 307 307 306 305 304 303 304 306 306 303 302 303 304 303 302 301 301 301 301 301 300 299 299 299 298 298 298 298 298 298 298 298 298 297 297 296 296 296 296 294
313 310 311 315 315 311 312 310 310 310 304 298 298 298 298 298 298 297 299 304 309 308 307 308 307 310 310 310 310 310 310 310 310 309 309 308 306 306 305 305 304 304 307 305 303 303 304 302 301 301 303 303 302 302 300 299 298 299 298 297 297 297 297 298 298 297 297 296 296 296 296 296 295 294
315 316 316 312 308 305 302 301 303 308 310 309 308 309 309 309 303 297 297 297 300 304 309 309 306 307 312 310 311 312 313 312 309 308 308 308 306 306 307 308 308 308 310 305 304 302 303 303 302 301 303 304 303 302 301 299 298 298 298 297 297 297 297 297 297 297 297 296 296 296 296 295 294 294
317 315 312 308 304 301 298 296 296 303 309 313 313 312 313 314 313 314 312 310 307 306 307 307 307 307 309 310 311 311 314 315 314 312 310 310 309 309 308 308 308 308 310 308 306 304 305 303 301 302 304 304 303 303 300 299 298 298 297 297 297 297 297 297 297 297 296 296 296 296 295 294 294 293
313 313 308 303 298 296 294 294 294 300 312 314 314 313 314 315 314 313 308 300 301 306 308 308 308 309 307 299 303 301 302 305 307 309 309 310 309 309 309 308 307 307 307 309 307 304 301 303 303 302 303 302 301 302 301 298 299 298 297 297 296 296 296 296 296 296 296 296 296 296 295 294 293 293
302 302 300 298 296 295 293 293 293 296 302 305 305 306 308 310 311 306 306 301 299 298 298 298 298 300 300 299 298 297 296 301 302 306 306 307 306 306 303 305 304 305 304 305 308 306 304 305 305 305 306 303 301 300 300 299 298 298 297 297 296 296 296 296 296 296 296 296 296 295 295 294 293 293
297 300 303 300 295 294 293 291 292 294 299 300 301 302 302 303 306 303 302 302 302 299 298 298 298 299 299 301 303 303 301 300 300 306 306 307 305 306 302 302 303 304 303 303 306 304 304 306 306 306 304 303 301 301 300 297 297 297 296 296 296 296 296 296 296 295 296 296 296 296 295 294 294 292
296 295 296 298 296 295 292 290 291 292 296 298 299 300 299 299 300 300 298 298 299 300 300 301 303 303 304 309 312 312 305 303 305 305 308 307 305 305 303 304 304 304 302 303 309 304 303 305 303 304 301 302 303 299 298 295 295 295 295 295 295 295 295 295 295 295 296 295 295 295 295 294 293 292
296 295 295 295 291 290 290 290 289 289 292 296 298 299 297 296 296 298 297 298 298 299 299 300 302 303 304 307 309 311 313 314 312 310 307 305 306 306 306 304 303 302 301 303 308 307 304 306 306 307 306 302 296 298 296 295 294 295 295 294 293 294 295 295 294 295 295 295 295 295 295 294 294 291
299 297 295 294 292 290 291 291 290 290 289 291 295 296 297 297 295 294 295 296 297 297 299 299 300 300 300 301 303 303 304 304 306 307 307 307 309 308 306 305 305 305 306 307 303 307 304 305 304 301 302 302 298 295 295 294 295 295 295 295 295 295 294 294 294 293 294 294 294 294 294 294 294 292
296 296 295 295 293 291 291 291 291 291 291 289 292 293 292 291 291 294 295 295 296 297 298 297 297 299 298 299 300 300 301 303 305 306 307 308 307 308 309 308 305 303 304 302 299 303 302 300 300 300 298 299 295 295 293 293 295 296 296 295 295 295 294 293 293 293 292 292 292 293 293 294 294 294
295 296 295 296 294 291 291 291 290 291 291 292 291 290 289 288 286 289 293 293 295 295 297 297 297 296 298 298 299 299 301 304 305 306 305 304 303 302 298 298 300 301 299 300 301 302 302 297 296 298 297 296 295 294 293 293 295 296 295 296 296 296 295 294 293 293 292 292 292 293 293 293 292 293
295 294 294 293 291 291 291 291 291 292 293 292 290 289 289 287 287 291 292 292 294 293 294 294 295 298 297 300 300 300 302 303 304 305 301 298 297 296 297 296 296 296 297 297 297 298 301 298 295 296 297 296 294 293 292 293 294 296 294 297 297 298 296 295 293 293 292 292 292 292 291 290 291 290
293 292 291 291 291 291 291 291 292 293 293 291 291 291 291 293 292 292 293 294 296 295 294 295 297 298 298 298 300 301 301 302 303 303 301 298 297 295 295 294 294 294 295 295 295 295 295 295 294 293 294 293 294 292 293 293 294 294 295 295 295 296 295 295 294 293 292 290 290 290 290 289 290 291
290 291 291 292 292 293 293 294 293 293 293 291 293 294 296 296 295 296 296 297 296 296 296 295 296 296 296 298 299 299 300 300 300 300 299 295 295 294 292 292 292 292 293 293 293 293 293 293 293 293 292 292 294 293 294 293 292 293 293 294 296 295 295 295 294 294 293 292 291 291 291 290 291 291
291 292 292 292 291 293 293 292 292 292 293 294 295 295 295 295 295 296 296 295 295 294 295 295 295 295 297 296 297 297 297 297 298 299 298 299 298 296 294 293 291 291 293 294 294 292 291 291 292 292 291 290 292 294 295 294 293 293 293 294 294 290 294 294 294 293 293 292 292 290 290 290 290 292
291 292 292 293 294 294 294 294 294 294 294 293 292 295 295 295 295 295 295 295 295 294 295 294 293 292 294 294 294 294 295 295 295 296 297 297 299 298 295 291 288 288 291 292 293 293 292 290 290 291 290 290 288 289 290 291 291 291 292 293 293 294 294 293 293 292 292 290 290 290 291 291 289 290
290 291 292 291 292 291 289 289 291 292 292 291 292 294 294 294 294 293 293 292 292 292 293 293 291 289 292 292 292 291 292 294 294 295 295 296 297 298 297 295 292 289 288 289 289 291 290 291 291 291 291 292 292 293 293 289 291 290 291 293 293 292 292 292 292 291 289 291 290 290 289 290 290 290
287 286 288 288 288 289 289 289 288 289 289 289 289 290 290 291 291 291 291 291 290 289 289 290 291 291 288 288 290 291 290 291 291 291 292 293 294 295 295 293 293 292 290 289 290 290 291 290 290 292 291 292 296 295 294 292 291 293 293 293 292 291 291 292 291 291 291 291 289 287 286 287 290 289
287 287 288 287 289 289 290 289 289 289 289 288 288 288 288 289 288 288 289 289 287 287 287 288 289 289 289 289 289 290 288 288 288 289 288 290 291 292 292 290 290 290 290 290 290 291 292 291 290 289 288 290 290 293 295 295 292 293 292 292 292 292 292 292 292 292 292 291 289 286 285 286 287 289
287 287 289 289 289 289 289 288 288 288 288 288 288 286 287 286 286 287 287 287 288 286 286 287 287 288 288 289 288 288 287 285 286 286 285 285 286 287 290 290 290 290 290 290 290 291 291 291 290 287 287 287 287 286 288 293 295 293 290 289 292 291 291 291 291 291 290 289 289 286 286 284 286 289
289 289 290 290 290 289 288 288 288 288 288 287 287 286 286 286 286 287 287 286 286 285 285 285 285 285 286 286 287 287 286 287 286 284 284 284 286 288 286 287 288 290 290 290 291 291 292 290 290 290 287 286 285 285 285 286 290 293 293 289 288 290 291 290 289 288 289 288 288 287 286 285 287 290
288 288 289 289 289 289 288 288 287 287 287 287 286 286 287 286 287 286 287 286 285 284 284 284 284 284 285 284 284 285 285 284 284 284 284 285 286 287 287 287 287 288 289 289 290 290 291 290 290 289 289 286 285 285 285 286 286 289 292 292 288 288 287 287 287 287 287 287 289 288 288 286 287 290
291 290 290 290 289 289 288 287 287 287 288 287 288 288 287 287 287 285 285 285 284 284 284 284 284 284 285 285 284 283 284 284 285 286 286 286 287 287 286 286 287 287 287 287 289 289 290 289 289 289 288 286 285 286 286 286 288 287 287 292 290 287 288 287 287 286 286 286 287 287 287 288 288 289
290 289 289 290 289 290 289 289 289 289 288 288 288 288 288 286 286 285 285 285 284 284 284 284 284 285 284 284 284 284 285 285 286 286 286 286 286 286 286 286 286 286 286 287 287 288 288 288 289 289 289 289 288 287 286 287 287 287 287 288 291 290 288 286 287 286 287 288 286 286 286 283 283 284
290 290 290 290 291 290 289 289 288 288 287 288 288 287 286 285 284 284 284 285 284 284 283 283 283 283 284 285 285 285 285 286 286 286 286 286 286 286 286 286 286 286 286 285 286 287 288 289 289 287 289 288 287 287 287 286 285 285 286 286 289 290 290 290 287 285 286 287 286 284 283 284 283 282
291 290 290 290 290 290 291 289 288 287 286 285 284 286 286 287 286 287 285 285 285 284 283 283 284 284 285 286 286 286 286 285 286 286 286 286 286 286 286 286 286 286 285 286 287 288 290 290 289 288 287 286 286 286 285 285 285 286 286 286 286 289 289 289 290 289 286 284 282 282 283 281 280 280
290 290 290 290 290 290 288 286 287 287 287 286 286 287 287 287 286 286 285 285 284 284 283 283 284 284 285 285 286 286 285 284 284 284 285 285 285 285 286 286 286 286 286 286 286 286 286 287 288 287 286 286 286 286 286 286 286 286 287 287 287 287 287 289 289 289 289 289 289 286 284 285 282 281
290 290 290 290 289 287 285 287 289 289 289 287 287 287 286 286 286 286 285 284 283 282 282 282 283 283 284 285 286 286 285 283 283 283 283 283 284 285 286 286 286 286 286 286 286 287 286 287 287 286 287 286 286 287 286 286 287 286 286 286 287 288 288 286 286 287 287 287 288 288 289 288 286 289
289 289 289 287 286 285 287 288 288 289 287 287 287 286 286 285 285 285 286 284 282 281 281 281 282 282 283 284 284 284 283 286 284 284 284 283 284 285 286 286 286 286 286 286 286 286 286 286 287 287 287 286 286 287 286 287 287 286 286 287 287 286 286 286 288 287 286 287 288 288 287 288 288 288
Wind_Speed
5 4 5 6 5 5 4 4 3 4 5 6 6 6 8 7 8 8 7 5 5 4 8 5 2 3 5 7 6 7 5 6 6 4 4 4 4 6 9 9 9 9 9 8 8 8 8 9 9 9 9 9 9 8 8 7 7 6 7 7 6 7 6 6 6 6 7 8 7 6 5 5 6 6
5 4 4 3 5 4 4 5 3 4 6 6 5 5 6 7 8 6 8 5 3 5 3 3 5 4 5 6 6 5 5 7 7 5 5 4 4 7 8 9 9 9 9 9 8 9 9 9 9 10 9 9 8 8 7 7 6 6 7 7 7 7 6 6 6 7 7 7 6 5 4 4 4 4
5 4 5 3 4 4 4 4 3 3 5 6 5 5 5 5 7 7 6 6 3 6 6 2 6 9 6 7 6 5 5 7 6 5 4 4 7 8 6 9 8 9 9 9 9 9 9 9 9 9 9 9 8 8 8 7 7 8 8 7 7 7 7 5 6 6 5 5 4 4 2 2 2 3
5 5 5 4 5 4 4 4 4 4 3 3 5 6 5 4 4 7 7 8 7 4 6 7 7 9 9 8 8 6 5 7 9 5 5 5 8 6 4 7 9 9 9 9 9 10 10 9 9 9 9 9 9 9 8 8 9 8 7 7 6 7 6 5 4 5 4 3 3 2 2 1 2 2
5 6 5 5 5 5 5 5 4 4 4 3 4 4 5 4 4 7 6 7 6 2 3 8 8 8 9 6 8 8 7 6 5 5 5 5 6 5 5 5 8 10 10 11 11 11 10 10 10 10 10 10 9 9 9 9 8 8 9 8 7 7 7 5 3 3 4 3 3 2 2 1 1 1
5 5 5 5 6 6 6 5 5 4 5 5 3 2 3 2 4 4 3 4 6 7 3 4 5 8 8 7 8 9 9 7 6 5 5 5 6 6 6 6 7 12 12 13 13 13 12 12 11 11 11 10 10 9 10 10 9 9 10 9 9 9 9 7 5 4 3 3 4 4 3 2 1 1
5 6 5 3 3 3 5 4 5 4 5 4 4 4 2 3 4 5 6 5 4 9 6 6 8 7 7 7 9 8 9 9 9 8 6 7 6 6 7 7 7 12 15 15 14 14 13 13 12 12 12 11 11 10 10 10 10 10 10 10 9 9 8 7 5 4 3 5 6 5 3 1 1 2
4 5 5 5 5 3 3 3 3 3 3 2 4 4 3 3 3 5 6 7 7 5 8 6 9 8 8 4 8 8 8 9 8 9 7 6 8 8 8 8 7 10 17 17 16 15 14 13 12 12 12 12 12 11 11 11 11 11 11 10 10 9 8 7 5 5 5 5 6 5 3 2 1 2
5 6 5 4 4 4 4 3 3 3 3 3 2 3 3 3 2 4 5 6 8 9 9 7 4 7 6 5 7 8 8 6 7 6 7 8 9 9 9 8 9 12 17 18 18 15 15 14 13 12 12 12 12 11 11 11 10 10 11 11 10 9 9 7 7 6 6 5 4 5 3 1 1 1
7 6 6 5 6 5 5 3 1 3 5 4 3 1 3 2 2 4 5 6 7 9 9 9 6 5 7 3 5 9 9 9 8 6 6 5 8 9 8 8 8 7 7 7 9 11 12 14 15 13 12 12 11 11 10 11 11 11 12 12 11 11 9 9 8 8 7 6 5 3 3 2 1 1
6 6 5 5 5 6 5 4 0 2 4 4 4 3 4 2 3 6 7 6 7 8 7 4 6 7 5 6 6 7 9 10 10 11 7 6 8 8 10 9 7 4 5 9 13 12 12 12 10 12 13 13 13 12 12 12 12 12 13 13 13 12 11 10 9 9 8 7 6 5 3 2 1 1
6 6 5 5 4 4 4 4 4 3 5 4 1 1 3 3 4 6 6 6 7 7 6 6 7 7 7 3 2 5 6 4 4 5 7 10 9 9 9 10 10 6 5 7 7 7 6 7 10 11 11 13 14 14 12 12 12 13 13 14 14 13 12 12 11 10 9 8 7 5 4 3 1 1
6 4 4 4 4 5 7 6 4 2 3 4 5 1 2 3 5 4 5 7 6 7 6 5 4 6 5 6 6 5 8 9 11 9 7 8 9 8 7 8 7 7 8 7 6 7 9 8 8 8 7 9 11 11 12 9 13 14 14 14 14 13 13 12 11 10 10 8 7 6 5 5 4 4
5 5 4 4 7 9 9 8 8 9 10 8 6 4 4 5 5 6 5 4 5 5 5 6 6 5 7 7 7 7 8 11 9 6 6 8 8 5 5 5 5 6 5 6 8 9 7 8 7 6 9 8 8 7 8 9 10 13 15 15 14 14 14 13 12 11 10 9 8 8 7 6 6 6
4 3 4 4 6 7 6 6 7 9 9 10 9 8 7 6 5 5 6 5 4 3 3 1 1 4 7 7 7 7 7 5 9 10 9 10 7 7 7 8 3 4 8 7 7 8 7 8 10 9 10 8 7 8 10 14 15 15 15 15 16 15 15 14 13 12 10 10 9 9 8 7 7 7
4 4 4 3 3 3 3 3 4 6 8 9 10 8 8 9 8 6 5 3 3 2 2 3 3 2 2 2 2 4 2 4 1 1 2 7 9 9 9 7 6 6 11 8 6 10 5 8 9 8 10 9 9 11 13 15 16 16 16 16 16 16 15 14 13 12 11 11 10 9 8 7 7 7
4 3 3 5 7 6 11 6 4 2 2 5 8 9 7 5 7 7 6 4 3 5 2 0 2 2 2 0 1 2 1 2 4 4 7 7 7 7 8 8 7 3 11 9 9 10 7 9 10 10 10 9 8 9 11 16 17 17 17 17 17 16 16 15 14 13 12 11 11 10 8 8 7 7
4 4 6 7 7 7 9 8 8 6 3 3 3 3 3 3 3 3 4 4 3 2 1 2 3 3 3 2 3 3 2 1 3 4 6 6 6 7 9 8 9 5 9 12 8 6 6 7 8 10 11 7 8 8 12 17 18 18 18 18 17 17 16 15 14 13 13 13 11 10 9 7 6 6
8 8 9 9 8 8 8 7 8 6 5 4 5 5 6 7 6 8 9 8 6 7 6 5 4 5 3 4 4 5 2 3 3 3 3 4 4 6 4 4 4 4 5 8 6 9 7 5 6 10 9 5 8 8 10 15 18 18 17 17 17 17 16 15 14 14 14 13 11 10 9 8 7 6
9 9 9 9 9 8 9 10 13 10 6 8 7 7 6 7 7 6 6 8 9 8 6 4 3 3 3 3 2 1 2 4 5 5 2 2 2 3 5 7 4 5 2 1 2 3 2 2 2 3 4 2 4 4 4 10 17 17 19 19 18 17 16 16 15 15 14 12 12 10 8 7 6 5
10 10 9 8 8 8 9 9 13 13 11 8 8 6 5 4 5 6 8 10 10 12 12 11 10 9 9 8 8 7 7 4 2 2 5 6 4 4 4 5 3 4 3 4 4 1 1 2 4 2 3 6 7 7 9 6 12 18 18 19 18 18 17 16 16 15 13 12 11 10 8 7 6 4
8 11 16 11 9 8 5 10 13 13 10 9 7 7 6 7 6 5 6 6 6 7 8 8 10 9 10 12 11 9 10 9 3 2 7 5 4 6 2 4 3 4 2 3 1 1 5 3 0 1 3 3 4 7 5 3 4 10 13 17 18 17 16 16 16 14 13 12 11 10 9 8 6 1
7 8 10 12 10 7 6 10 10 11 9 6 5 4 5 5 4 4 5 7 9 10 10 9 9 9 10 8 7 9 13 12 6 3 5 6 4 7 5 6 7 9 4 3 5 3 4 0 3 1 3 4 2 3 2 2 1 3 5 8 9 14 15 15 14 13 13 12 11 11 10 9 6 2
6 7 6 8 10 10 9 8 8 7 7 4 2 2 3 3 4 3 4 3 4 5 5 6 6 6 6 6 6 6 6 7 6 4 4 3 3 4 6 6 6 6 3 2 2 4 1 2 8 6 7 6 4 2 3 3 2 0 0 1 2 3 5 8 8 11 11 10 10 10 10 9 7 4
6 5 5 4 6 8 7 7 6 5 3 3 2 1 1 2 2 3 4 5 6 4 5 5 6 7 6 6 6 6 6 7 7 6 4 4 6 6 6 6 6 8 8 5 4 4 5 6 6 1 2 2 1 1 1 2 3 5 3 4 4 2 3 6 5 5 6 8 9 9 9 10 9 7
5 4 3 3 5 8 7 6 5 5 4 4 2 3 5 8 8 5 3 3 4 4 5 5 6 7 6 7 7 7 7 8 9 8 8 7 4 4 6 7 8 6 8 1 5 4 3 1 1 1 1 1 2 2 2 1 2 3 5 4 3 4 5 5 5 4 4 5 5 6 8 12 8 9
4 3 3 3 6 7 6 6 6 6 4 3 3 5 6 4 3 2 2 3 4 5 5 5 5 6 6 6 6 6 7 8 9 9 7 5 4 1 2 3 2 1 3 4 1 3 4 1 0 3 1 2 4 1 2 1 1 3 2 3 4 6 6 6 6 6 6 5 5 10 11 9 6 9
5 6 5 6 10 10 9 8 7 7 6 5 6 5 4 3 1 1 2 3 4 3 5 5 3 4 4 6 7 7 7 7 7 8 6 6 2 4 5 5 4 5 5 4 3 2 4 5 3 2 5 6 4 4 2 1 1 5 6 4 5 6 6 7 7 5 4 4 3 3 3 3 5 5
5 6 9 11 10 9 8 7 6 5 5 6 7 7 5 1 1 2 2 4 4 5 4 2 4 4 4 4 4 5 6 6 7 7 6 4 4 4 5 5 5 6 5 5 5 3 2 4 4 2 3 2 5 4 7 5 5 4 6 6 5 7 7 7 6 5 5 4 4 4 6 6 5 6
6 8 9 10 10 10 8 6 5 6 6 8 10 10 9 6 7 6 7 6 7 5 3 4 3 2 4 4 5 5 6 7 7 7 8 5 4 3 2 5 6 5 5 4 4 3 3 3 4 5 5 3 5 6 5 6 1 4 5 8 6 2 3 5 5 4 5 5 5 5 5 5 6 7
7 8 7 6 7 6 9 7 6 7 6 7 7 6 6 7 7 7 8 7 7 4 3 2 1 1 3 2 5 7 6 6 6 6 6 6 5 2 1 3 1 4 4 4 3 3 4 3 2 4 5 2 2 3 4 5 6 5 3 5 7 6 4 4 4 5 5 5 5 3 2 2 4 5
5 5 6 8 8 8 8 7 7 7 7 7 6 8 8 8 8 9 10 10 8 7 6 3 1 2 3 5 4 5 6 5 5 4 6 5 7 4 2 1 1 1 1 2 4 4 4 3 3 2 3 5 4 1 1 3 6 5 5 5 5 4 5 6 6 5 5 5 5 3 1 0 5 4
4 6 8 8 8 7 7 7 7 7 8 8 8 9 8 8 8 8 8 8 8 8 7 7 4 3 4 5 4 4 5 5 6 5 5 5 5 6 3 5 4 3 2 0 2 3 3 4 4 2 1 2 2 3 4 3 3 3 4 2 3 3 4 4 6 6 3 5 3 2 3 3 4 6
5 6 6 6 7 7 7 7 7 7 7 7 7 8 8 8 8 8 8 7 7 7 7 7 7 7 7 7 5 4 3 6 6 5 5 5 5 5 6 5 2 0 1 1 1 0 1 3 3 4 3 2 2 3 2 2 2 0 1 1 3 4 4 5 4 4 4 4 4 2 2 4 4 4
7 6 7 7 7 7 8 7 7 7 7 7 7 7 7 7 7 7 7 7 6 7 6 6 5 4 5 5 5 4 4 4 5 6 5 4 5 4 3 2 2 2 2 2 0 1 0 1 3 2 3 3 1 2 6 3 2 2 3 3 4 6 6 4 5 4 4 3 3 3 3 3 3 2
6 7 8 7 7 7 8 7 7 7 7 7 6 6 7 7 6 6 6 5 5 6 6 6 5 5 4 5 5 5 3 4 4 5 5 5 5 5 3 1 2 3 3 2 1 1 2 1 2 1 0 1 0 2 0 7 5 2 4 2 2 4 4 4 3 4 5 3 2 3 0 2 5 4
7 7 6 7 6 7 7 6 7 7 7 6 6 6 6 6 5 5 5 4 6 6 6 6 6 6 5 5 5 4 3 3 3 4 4 5 5 4 2 3 2 2 2 1 2 0 1 1 2 1 1 2 2 3 1 3 6 5 4 4 3 2 5 5 5 3 1 2 1 2 3 4 4 6
6 6 7 7 7 7 6 6 6 7 6 6 6 5 5 6 6 6 6 7 7 6 6 6 6 6 6 5 5 5 5 4 3 3 4 5 5 4 4 3 3 4 3 3 3 2 1 0 0 2 3 4 3 1 0 2 2 2 3 4 4 2 3 5 3 3 1 3 1 2 2 3 4 6
6 6 7 7 7 6 7 6 7 7 6 6 6 6 6 6 6 6 6 6 6 6 6 7 7 7 7 7 6 5 6 6 6 6 6 5 5 4 4 4 4 4 5 5 6 5 5 5 3 2 3 4 3 1 1 1 1 1 4 6 4 4 1 3 4 1 3 2 2 3 4 1 2 5
7 6 6 7 6 6 6 6 7 6 5 5 6 5 4 5 5 5 6 6 7 7 7 7 8 8 7 7 6 6 6 5 5 5 5 4 4 4 4 3 4 4 5 4 5 4 4 4 3 3 2 2 1 1 1 1 0 2 3 4 5 1 3 4 2 4 2 1 2 4 2 1 2 0
6 6 6 6 6 6 6 5 3 2 3 4 4 4 5 5 6 6 6 6 6 7 7 6 6 5 6 6 6 5 5 5 5 4 4 5 5 4 5 4 4 3 4 2 2 2 2 1 2 6 3 1 1 1 2 2 2 2 3 3 3 1 3 2 3 2 2 1 2 3 3 1 1 1
6 6 6 6 6 6 5 3 3 3 3 3 3 4 5 6 6 7 7 7 6 6 6 6 5 5 6 5 5 5 5 5 5 6 5 5 4 4 5 5 5 5 3 1 0 1 1 2 2 0 1 1 1 3 1 1 2 2 3 3 2 3 3 4 4 4 3 3 2 1 0 1 2 2
6 5 6 5 6 4 4 4 5 4 4 2 4 5 5 6 5 6 5 5 4 4 5 5 5 5 5 5 5 5 5 6 5 5 5 6 5 5 5 5 5 4 4 4 4 3 4 3 4 4 3 2 1 1 0 1 3 2 2 1 2 3 1 2 3 2 1 2 3 3 1 2 4 1
5 5 5 5 4 4 4 4 5 5 4 3 4 4 5 5 3 2 1 2 3 3 3 3 5 5 5 5 4 5 5 5 4 5 5 4 4 4 4 5 5 5 4 4 5 5 5 5 4 3 4 3 2 0 2 1 1 2 4 2 1 1 3 3 1 3 2 4 4 4 6 5 4 4
5 5 4 3 3 4 4 5 5 6 5 2 2 5 3 3 2 1 0 0 1 1 2 3 3 3 3 4 5 5 5 4 5 4 4 4 5 5 4 5 5 5 5 4 4 5 5 5 4 3 2 3 2 2 3 1 2 1 1 2 3 2 2 1 0 3 3 4 5 7 8 6 3 4
Wind_Direction
176 169 171 171 177 179 164 164 157 162 167 164 155 161 167 170 150 161 167 194 145 146 142 139 167 161 144 140 146 141 152 157 149 134 139 145 155 161 149 142 142 139 141 142 146 145 144 143 147 148 146 144 142 137 139 139 139 137 130 128 123 124 126 121 117 114 110 103 98 94 93 85 78 74
167 177 166 169 164 170 159 166 165 165 170 173 158 152 164 157 160 157 157 189 168 148 191 152 143 168 157 146 145 148 157 167 153 150 152 159 170 173 161 154 154 152 154 159 163 168 167 168 167 162 161 156 154 154 153 152 157 155 154 146 142 139 137 144 139 129 123 121 119 112 106 93 80 63
157 170 176 175 159 171 158 152 148 160 154 170 145 155 151 160 149 149 145 137 194 157 157 154 154 151 166 155 150 151 159 175 165 162 165 174 178 173 177 171 170 171 170 173 179 183 185 184 182 176 172 170 170 173 173 177 177 176 162 161 160 153 142 144 148 137 128 124 119 110 94 76 58 47
165 171 181 176 160 169 151 160 165 157 180 173 168 161 154 149 162 153 152 149 164 198 152 150 154 154 151 157 152 158 168 182 183 166 181 178 171 179 187 195 190 187 188 189 192 197 192 194 193 188 186 185 185 187 188 192 194 178 168 174 172 160 154 147 150 147 131 124 119 106 97 58 42 30
170 179 185 173 167 158 156 170 178 162 181 187 191 178 149 136 153 141 147 139 130 70 139 144 157 162 147 156 163 157 169 175 194 190 184 174 176 188 195 200 210 206 202 202 203 206 202 198 200 196 195 192 194 191 192 201 206 179 179 181 174 171 166 158 143 148 145 139 133 134 124 101 66 17
182 175 179 179 162 167 160 166 179 178 181 184 197 228 139 152 153 159 112 141 133 152 141 123 138 157 171 150 171 164 171 186 186 194 187 186 193 193 193 201 213 216 215 211 210 210 208 204 206 201 201 195 196 195 194 201 208 193 191 190 189 185 180 168 162 160 166 161 153 143 131 115 86 1
169 170 177 149 138 150 155 171 188 184 184 178 179 205 183 191 149 167 154 135 128 150 173 161 154 173 181 168 176 178 180 182 184 188 191 190 199 213 200 203 211 213 215 215 215 214 213 211 210 207 202 200 198 197 197 199 203 203 198 199 199 203 182 170 164 172 185 189 158 141 122 108 28 353
149 136 125 137 132 105 148 170 191 198 165 174 182 188 203 185 159 158 170 157 138 154 144 192 168 181 170 193 175 175 176 175 185 196 193 192 199 208 208 210 214 212 212 215 216 216 217 217 217 216 211 206 201 200 199 198 200 203 201 200 203 199 182 177 179 183 197 187 160 145 135 104 325 356
136 135 140 150 128 121 129 133 181 210 208 234 191 181 164 172 166 170 176 155 145 145 159 174 198 172 185 176 169 168 170 186 192 192 194 198 203 208 211 209 218 217 208 212 213 214 216 219 221 221 220 217 211 205 203 201 199 200 201 200 202 196 189 183 184 189 187 176 162 153 131 147 345 50
137 141 146 142 137 146 146 144 184 200 216 210 230 179 181 190 155 161 182 156 149 146 158 163 170 196 175 158 173 182 176 172 188 203 210 207 209 208 218 221 218 214 200 208 219 220 220 222 221 222 223 222 220 215 208 203 198 197 197 197 198 196 192 186 184 183 179 165 148 139 145 123 55 40
127 124 138 150 158 152 156 136 157 192 198 220 204 177 211 196 136 167 165 149 149 148 150 153 171 182 217 173 168 192 184 184 182 191 199 218 221 213 210 222 227 221 216 216 209 208 206 209 211 221 222 220 219 216 212 206 201 196 194 194 195 194 190 186 183 178 175 167 161 154 130 94 44 5
117 137 143 141 150 140 139 141 192 199 156 204 193 235 217 233 165 174 152 150 157 162 163 162 173 194 193 240 206 156 167 180 246 230 191 205 213 219 218 212 207 211 193 211 213 218 211 223 223 228 229 227 224 219 215 212 204 199 194 194 193 191 188 185 180 177 176 171 165 160 157 164 244 308
131 134 136 139 143 122 102 103 116 97 113 137 102 18 233 190 159 144 139 162 161 172 171 179 170 172 193 204 201 154 176 191 201 209 205 218 216 214 216 231 215 189 191 209 204 210 202 204 213 210 219 226 220 226 215 216 211 202 195 193 191 187 185 182 179 179 175 170 166 171 175 190 207 227
121 134 138 133 122 116 118 118 110 94 89 91 100 127 107 107 94 98 99 118 153 145 173 199 166 177 197 205 204 200 200 202 205 198 204 220 232 229 236 270 242 199 184 176 207 224 200 202 217 205 225 227 202 217 203 213 204 203 196 192 188 185 182 180 180 180 175 171 176 180 186 194 206 218
129 111 124 131 127 117 106 112 128 118 116 110 105 95 93 99 114 105 90 97 110 129 138 184 157 191 202 216 209 208 219 188 186 204 200 212 215 211 210 232 278 202 177 192 207 233 206 188 211 213 221 219 206 210 216 209 204 199 194 191 187 183 180 179 181 179 174 176 182 186 189 198 210 218
126 142 130 142 122 103 83 104 115 112 121 126 124 124 106 91 74 86 124 131 91 116 115 108 145 137 191 238 217 247 247 251 299 285 220 214 212 215 216 221 214 221 175 191 195 237 201 192 215 219 226 216 210 212 213 204 202 198 193 190 187 182 180 179 180 177 177 182 186 188 191 200 215 226
113 112 105 78 47 38 28 34 21 55 78 111 129 128 110 101 109 106 90 74 134 156 127 132 203 171 170 109 255 189 216 187 206 236 245 238 228 216 209 223 228 251 186 183 207 229 214 180 206 218 229 214 211 218 213 205 201 198 192 188 185 182 179 179 178 177 182 186 189 188 190 202 218 238
105 112 100 82 58 28 26 15 9 354 28 9 37 48 60 95 101 69 46 61 67 90 156 164 229 238 165 198 229 233 177 149 238 234 246 247 242 233 223 221 215 221 162 184 197 230 236 199 203 222 235 201 210 217 212 202 199 196 191 187 184 182 179 178 177 180 184 189 188 184 191 202 221 244
61 72 76 76 71 50 33 16 349 351 354 20 29 24 14 4 17 51 46 32 21 15 1 347 316 326 345 322 303 302 301 254 231 203 213 219 227 245 263 306 271 267 211 202 167 227 224 173 197 227 227 189 210 217 218 202 199 193 186 186 185 181 177 176 179 184 189 190 185 185 191 202 223 241
49 59 69 74 65 55 43 2 12 20 32 47 39 36 24 26 48 53 36 28 35 32 27 21 357 320 293 202 219 242 285 329 330 333 305 307 289 293 288 265 292 270 274 173 231 293 340 353 253 312 2 51 247 256 242 214 201 191 187 185 183 178 176 177 181 187 192 189 187 186 191 205 222 239
59 60 64 71 70 61 47 23 36 30 52 53 44 32 27 38 55 13 353 358 12 9 5 2 1 351 334 318 298 280 245 224 210 320 329 294 275 287 282 275 280 282 19 31 89 145 246 216 157 187 197 177 203 211 222 214 207 195 187 182 181 178 177 179 183 190 190 190 187 187 189 206 221 240
61 60 63 66 65 58 39 33 41 37 52 57 44 39 26 20 13 359 351 346 346 356 354 358 353 345 339 334 328 315 307 300 255 317 292 273 316 294 271 274 285 287 280 225 182 22 252 237 132 239 266 207 218 211 205 204 220 198 185 183 181 178 177 180 187 189 189 188 186 184 188 203 206 183
65 57 51 56 60 63 53 44 40 40 51 60 49 42 44 22 359 335 349 353 351 348 351 348 353 345 344 339 333 323 318 314 301 237 255 281 279 264 270 270 290 296 279 243 165 179 240 10 304 245 338 287 321 55 149 119 126 171 189 188 187 183 178 184 189 190 189 187 187 184 188 203 176 146
60 55 51 45 44 50 47 51 53 44 44 65 62 61 59 14 331 0 350 345 349 330 323 315 328 321 322 325 328 326 329 329 337 307 250 235 207 221 245 251 241 250 257 281 200 206 316 277 256 220 218 247 274 351 49 64 82 58 300 184 130 197 198 193 208 203 193 189 188 185 192 205 173 144
73 53 48 40 37 41 39 35 37 51 48 38 5 6 14 5 2 4 356 335 347 323 316 316 324 322 326 328 327 323 320 317 314 307 267 214 197 194 210 232 240 243 251 237 203 157 228 221 257 242 223 206 200 81 59 126 158 143 120 123 178 169 209 231 223 213 204 196 192 191 202 213 183 162
65 65 45 34 12 15 15 21 22 12 12 7 21 348 347 15 17 5 336 319 319 317 318 325 324 325 333 330 330 332 337 338 327 318 306 287 269 252 229 223 222 242 252 226 156 183 225 329 219 203 195 200 297 107 125 240 168 151 132 168 180 193 202 227 236 239 213 191 202 202 214 224 189 167
25 39 48 14 356 353 2 1 1 354 18 56 22 19 44 28 19 346 322 312 321 321 319 330 323 321 334 341 340 342 344 335 333 326 315 299 284 305 8 35 31 283 320 343 313 164 160 124 306 115 121 122 109 98 111 117 94 111 154 188 206 220 200 210 220 214 212 197 206 214 217 230 135 169
15 6 357 342 337 346 350 360 6 15 26 51 41 48 65 96 150 293 310 309 294 297 302 310 318 341 348 3 358 348 340 338 339 336 345 348 28 87 63 47 40 29 24 12 357 38 125 141 177 194 154 156 153 161 155 317 150 147 166 197 220 223 198 202 219 218 211 204 193 197 196 207 139 127
17 348 341 337 342 340 347 1 21 60 74 24 9 13 8 12 10 332 303 307 322 326 323 355 18 18 3 350 339 336 335 333 346 348 346 359 22 46 76 63 52 31 26 9 11 11 83 124 151 152 87 128 140 166 149 182 156 158 169 168 203 214 203 206 205 195 187 174 185 170 194 181 165 162
7 0 348 348 350 351 355 10 27 35 23 27 37 37 39 31 29 27 23 9 5 356 26 54 32 351 351 359 338 339 346 358 348 350 346 347 343 355 36 49 21 19 24 21 27 27 65 113 141 119 91 92 131 145 156 130 140 196 192 197 201 121 194 193 193 188 156 176 181 194 222 197 179 159
3 353 356 337 338 349 7 42 74 61 40 39 33 32 29 27 20 17 23 17 12 350 12 347 311 329 326 319 14 8 357 347 344 352 338 338 299 279 335 88 35 15 355 7 30 33 39 46 72 124 128 136 70 116 153 126 127 136 136 144 141 154 183 133 140 139 148 140 143 144 146 158 159 172
346 347 350 20 36 41 45 43 45 43 42 39 31 28 27 29 30 30 24 25 23 4 329 341 358 354 358 23 0 2 1 339 327 339 345 330 319 281 208 122 202 200 14 6 12 9 29 49 61 65 135 160 153 192 71 110 145 158 175 179 174 191 153 150 138 143 142 123 83 72 19 63 141 127
350 19 35 34 35 44 50 48 41 32 33 28 30 33 29 30 33 31 31 26 15 356 358 3 9 0 6 359 355 10 353 330 321 334 346 333 327 309 248 246 224 174 173 194 16 7 7 11 20 48 89 139 153 159 141 145 205 170 167 183 150 139 117 119 136 146 137 84 110 103 38 7 105 134
42 39 48 39 45 42 48 45 42 38 42 38 31 27 26 30 31 28 25 24 6 359 1 351 357 352 355 341 340 348 325 307 315 323 346 325 325 331 315 285 279 109 67 85 47 10 357 355 3 3 11 11 41 90 134 125 123 86 231 175 116 110 117 123 118 124 113 135 127 87 45 39 87 136
42 35 42 31 43 49 54 52 44 44 42 36 38 26 27 32 29 25 23 5 358 357 354 348 355 3 8 346 330 323 307 306 316 337 331 335 333 329 339 29 46 90 107 96 280 274 39 33 33 16 354 358 6 355 32 37 126 44 54 60 124 126 128 130 127 131 137 148 111 107 84 75 108 184
24 39 52 50 48 49 51 44 46 45 45 39 39 32 34 27 21 28 18 343 355 353 353 350 349 352 348 345 336 323 308 327 343 345 341 345 343 329 355 85 140 127 124 165 238 357 41 18 85 100 152 318 88 240 217 360 25 134 102 79 51 95 103 122 125 120 112 88 107 115 118 153 193 214
47 48 57 59 53 53 55 46 49 47 48 46 38 39 43 31 13 22 8 358 14 4 355 348 349 341 337 335 326 328 337 5 347 336 342 336 344 354 17 19 34 86 102 137 155 155 60 10 9 49 36 342 286 240 272 310 357 14 103 100 65 70 125 115 102 101 146 136 127 136 185 151 195 209
50 53 54 52 52 55 57 53 49 49 44 39 37 30 30 23 18 15 8 18 9 5 360 1 348 346 341 342 353 345 348 351 3 2 0 17 23 15 22 37 39 46 67 50 51 54 68 118 261 268 209 212 231 269 61 323 17 349 15 104 105 101 109 107 103 132 22 16 89 263 189 184 200 206
35 48 59 56 51 54 55 49 54 46 38 32 31 28 22 15 16 14 17 16 8 9 5 9 8 360 359 353 0 8 17 15 19 12 11 10 24 25 14 23 36 20 38 26 23 28 35 39 21 28 117 147 168 215 186 118 37 271 349 27 112 95 92 136 134 121 125 87 55 39 59 80 73 45
33 48 63 68 59 59 60 56 49 43 42 34 34 36 37 23 22 20 17 13 12 10 15 12 8 8 8 3 3 13 30 32 27 16 12 9 14 28 39 38 55 53 52 34 33 20 40 37 42 73 98 144 179 203 169 151 244 342 349 8 36 118 174 135 152 150 120 182 124 73 57 24 101 344
32 45 40 60 59 56 52 55 62 50 41 46 58 47 42 38 34 25 19 14 14 12 10 6 6 10 10 11 12 17 25 14 16 14 14 12 9 10 14 32 38 56 85 52 37 36 16 288 269 289 292 251 323 25 29 26 5 326 325 305 319 62 71 89 149 142 150 184 112 125 143 185 189 97
42 44 41 47 58 48 51 23 359 21 17 38 76 69 47 40 34 27 21 12 11 3 1 360 357 4 8 8 12 18 28 20 12 3 1 5 10 25 24 25 19 359 40 46 315 211 258 290 314 32 29 33 42 76 52 212 230 251 263 295 305 320 81 103 102 123 154 134 105 101 69 9 25 37
43 45 44 43 48 39 11 1 355 2 359 34 58 62 54 41 32 20 10 9 355 3 356 352 355 2 359 359 5 17 25 19 16 18 17 16 19 23 22 20 17 14 10 351 323 319 329 339 16 17 3 55 4 116 161 243 252 207 200 265 290 320 333 55 98 131 173 189 160 160 173 156 115 158
44 55 46 40 35 15 7 355 355 356 356 41 73 72 82 83 60 3 353 345 357 344 335 356 0 10 2 356 1 18 27 14 13 25 16 8 12 18 23 14 14 5 359 359 352 346 342 349 348 22 15 338 334 42 280 309 327 259 194 203 256 215 242 313 1 24 357 303 271 242 238 196 170 185
46 68 54 28 5 3 347 352 7 4 6 0 81 109 135 144 160 190 292 324 335 333 6 4 10 8 9 11 25 19 355 2 15 10 13 8 6 6 11 15 5 2 349 342 351 336 335 328 319 353 351 310 312 285 281 244 233 211 179 177 224 257 283 335 244 270 296 310 263 219 226 217 187 137